Location: Delettes
(50.6178°N, 2.2123°E)
Time: 14:48:24
(UTC+00:00)

STARLINK-1063 - Pass Details

Date: 27 February 2020
Orbit: 548 x 551 km, 53.0° (Epoch: 28 March)

Event Time Altitude Azimuth Distance (km) Brightness Sun altitude
Rises 19:46:32 0° 250° (WSW) 2,712 8.0 -22.6°
Reaches altitude 10° 19:48:46 10° 250° (WSW) 1,820 7.0 -22.9°
Enters shadow 19:52:41 80° 257° (WSW) 563 3.6 -23.5°
